[[{"header":{"parameterUnit":"m.s-1","parameterCategory":1,"la1":30.2991,"la2":30.254,"lo1":-89.0895,"lo2":-89.0444,"dy":0.0017,"dx":0.0017,"nx":28,"ny":28,"refTime":"2026-02-01T03:00:00:Z","depth":0,"parameterNumber":2,"parameterNumberName":"U-component_of_WINDS"},"data":[0,0,0,0,0,0,0,0,0,0,0,0,0,0,0,0,0,0,0,0,0,0,0,0,0,0,0,0,0,0,0,0,0,0,0,0,0,0,0,0,0,0,0,0,0,0,0,0,0,0,0,0,0,0,0,0,0,0,3.2638,3.2638,0,3.2703,3.2704,3.2705,3.2645,3.2643,3.264,3.2638,3.2705,3.2709,3.2713,0,0,0,0,0,0,0,0,0,0,0,0,0,3.2459,3.2463,3.2638,3.2638,3.2639,3.2703,3.2704,3.2705,3.2646,3.2643,3.264,3.2637,3.2703,3.2708,3.2713,0,0,0,0,0,0,0,0,0,0,0,0,0,3.2532,3.2464,3.2638,3.2617,3.2616,3.2703,3.2704,3.2705,3.2646,3.2643,3.2639,3.2636,3.2702,3.2708,3.2714,3.2823,0,0,3.2732,3.2735,0,0,0,0,0,0,0,0,3.2528,3.2538,3.262,3.2619,3.2618,3.2662,3.2665,3.2745,3.2647,3.2635,3.2638,3.2634,3.2693,3.27,3.272,3.2826,3.2829,3.2733,3.2736,3.2739,3.274,0,0,0,0,0,0,0,3.2523,3.2535,3.2664,3.2621,3.262,3.2604,3.2611,3.268,3.2684,3.2636,3.2631,3.264,3.2692,3.2714,3.2721,3.283,3.2732,3.2738,3.2741,3.2744,3.3027,3.303,0,0,0,0,0,0,3.252,3.2532,3.2661,3.2665,3.2563,3.2611,3.2618,3.2652,3.2683,3.2684,3.2643,3.2637,3.2706,3.2714,3.2723,3.2852,3.2739,3.2744,3.2748,3.3023,3.3028,3.3032,0,0,0,0,0,0,3.2517,3.2532,3.2659,3.2597,3.2612,3.2617,3.2656,3.2655,3.2677,3.2688,3.2688,3.2665,3.2703,3.2715,3.2798,3.2853,3.2747,3.2753,3.3018,3.3024,3.303,3.311,0,0,0,0,0,0,3.2512,3.2531,3.2574,3.2599,3.2616,3.2733,3.266,3.2659,3.2688,3.268,3.2709,3.271,3.2701,3.279,3.2804,3.286,3.2757,3.3013,3.3021,3.3028,3.3103,3.3118,3.3132,0,0,0,0,0,3.2506,3.2594,3.2576,3.2592,3.2669,3.2737,3.2746,3.2734,3.2692,3.2734,3.2741,3.271,3.2845,3.2799,3.2815,3.2873,3.301,3.3019,3.3027,3.3096,3.3115,3.3131,0,0,0,0,0,0,3.2576,3.2597,3.2577,3.2677,3.2706,3.2727,3.2779,3.2755,3.2796,3.2787,3.2771,3.2778,3.2865,3.2877,3.2825,3.2979,3.292,3.2933,3.2968,3.2986,3.3,3.2994,3.2762,0,0,0,0,0,3.2603,3.2657,3.2673,3.2759,3.2774,3.2775,3.2804,3.2792,3.282,3.2832,3.2845,3.2874,3.2922,3.2955,3.3001,3.3105,3.3109,3.3152,3.3167,3.3178,3.3189,3.3242,3.3261,3.3061,3.306,3.306,0,0,3.266,3.2678,3.2713,3.2774,3.2794,3.2849,3.2785,3.2847,3.2886,3.2841,3.292,3.2931,3.2961,3.3055,3.3097,3.3068,3.3245,3.319,3.3199,3.3203,3.3253,3.3272,3.3289,3.3067,3.3065,3.3064,0,0,3.2791,3.2811,3.2884,3.2905,3.2937,3.2936,3.2954,3.2978,3.2983,3.3062,3.3029,3.3076,3.3161,3.3183,3.3206,3.3344,3.3315,3.3359,3.3433,3.3485,3.3501,3.3515,3.3561,3.3579,3.337,3.337,3.337,0,3.2857,3.2939,3.2924,3.2988,3.3014,3.2975,3.3048,3.307,3.3115,3.3134,3.3101,3.3205,3.3223,3.332,3.3353,3.3374,3.3392,3.3355,3.35,3.3514,3.3526,3.3571,3.3589,3.3375,3.3374,3.3374,3.3373,0,3.3017,3.3074,3.3129,3.3173,3.3206,3.3274,3.3269,3.3304,3.3289,3.3291,3.3371,3.3391,3.3439,3.3462,3.3448,3.3556,3.3537,3.3503,3.3443,3.3551,3.3592,3.3609,3.3382,3.338,3.3379,3.3377,0,0,3.3194,3.3228,3.3248,3.3266,3.3298,3.3341,3.3407,3.3453,3.3482,3.3515,3.3568,3.364,3.3607,3.3633,3.3622,3.3668,3.3772,3.3627,3.3628,3.3651,3.3889,3.3913,3.3933,3.3754,3.3757,3.376,3.3886,0,3.3324,3.3438,3.3426,3.3533,3.3584,3.3548,3.3604,3.3629,3.3633,3.3676,3.368,3.373,3.3685,3.37,3.3744,3.375,3.3819,3.3741,3.3801,3.3803,3.3792,3.3955,3.3981,3.4099,3.3902,3.3905,3.3907,0,3.3491,3.3528,3.3641,3.3662,3.3683,3.3734,3.3774,3.3817,3.3843,3.3843,3.3871,3.385,3.3914,3.3855,3.3942,3.3889,3.3913,3.3919,3.3924,3.3927,3.386,3.3961,3.4137,3.4154,3.3932,3.393,3.3928,0,3.3606,3.3684,3.3761,3.3778,3.3805,3.3841,3.3854,3.3877,3.3905,3.3941,3.3958,3.4001,3.4024,3.4057,3.4048,3.4006,3.4136,3.4077,3.4136,3.4136,3.4164,3.4162,3.4344,3.4183,3.4183,3.4183,3.4182,0,3.3751,3.3821,3.3812,3.3859,3.3935,3.3921,3.3996,3.4005,3.4025,3.4072,3.4044,3.4088,3.4075,3.4119,3.4113,3.4184,3.4195,3.4195,3.4192,3.4197,3.4196,3.4211,3.4201,3.4187,3.4186,3.4185,3.4184,0,3.3892,3.3889,3.397,3.3989,3.3995,3.405,3.4065,3.4109,3.411,3.417,3.4183,3.4184,3.4234,3.4229,3.4285,3.4281,3.4368,3.4357,3.4359,3.4356,3.4414,3.4408,3.461,3.4635,3.4461,3.4462,3.4464,0,3.3984,3.4036,3.406,3.4089,3.4105,3.4153,3.418,3.4168,3.4198,3.4231,3.427,3.4317,3.4353,3.4434,3.444,3.4482,3.447,3.4538,3.4476,3.4478,3.4468,3.4464,3.4468,3.4549,3.4551,3.4553,3.4554,0,3.4147,3.4142,3.4183,3.4224,3.4258,3.4289,3.4318,3.4343,3.4333,3.4368,3.4418,3.4446,3.4503,3.4549,3.4588,3.4601,3.4575,3.4574,3.4589,3.4593,3.4591,3.459,3.439,3.4569,3.4567,3.4566,3.4566,3.4565,3.4264,3.4308,3.4331,3.4377,3.4397,3.4423,3.4464,3.447,3.4512,3.4556,3.4546,3.4602,3.4625,3.4675,3.4692,3.4734,3.4709,3.4733,3.4738,3.4743,3.4749,3.4586,3.4742,3.4741,3.4741,3.4741,3.474,0,3.4423,3.4435,3.4478,3.4518,3.4554,3.4527,3.4557,3.4588,3.4638,3.4662,3.4698,3.4754,3.4798,3.4807,3.4849,3.4881,3.487,3.4892,3.4889,3.4891,3.477,3.4751,3.49,3.49,3.49,3.49,3.49,3.49,3.451,3.4581,3.4579,3.466,3.4672,3.4726,3.4744,3.4768,3.4787,3.4851,3.4887,3.4892,3.491,3.4952,3.4991,3.4992,3.5008,3.5034,3.503,3.4916,3.49,3.4885,3.4867,3.5038,3.5038,3.5148,3.5149,3.5149]},{"header":{"parameterUnit":"m.s-1","parameterCategory":1,"la1":30.2991,"la2":30.254,"lo1":-89.0895,"lo2":-89.0444,"dy":0.0017,"dx":0.0017,"nx":28,"ny":28,"refTime":"2026-02-01T03:00:00:Z","depth":0,"parameterNumber":3,"parameterNumberName":"V-component_of_WINDS"},"data":[0,0,0,0,0,0,0,0,0,0,0,0,0,0,0,0,0,0,0,0,0,0,0,0,0,0,0,0,0,0,0,0,0,0,0,0,0,0,0,0,0,0,0,0,0,0,0,0,0,0,0,0,0,0,0,0,0,0,-1.6578,-1.658,0,-1.6727,-1.6729,-1.673,-1.6778,-1.6777,-1.6777,-1.6776,-1.693,-1.6935,-1.694,0,0,0,0,0,0,0,0,0,0,0,0,0,-1.6338,-1.6342,-1.6578,-1.658,-1.6582,-1.6727,-1.6729,-1.6731,-1.6778,-1.6777,-1.6777,-1.6776,-1.6929,-1.6934,-1.694,0,0,0,0,0,0,0,0,0,0,0,0,0,-1.646,-1.6343,-1.6578,-1.6623,-1.6628,-1.6726,-1.6729,-1.6731,-1.6778,-1.6777,-1.6776,-1.6775,-1.6927,-1.6934,-1.6941,-1.7005,0,0,-1.6963,-1.6966,0,0,0,0,0,0,0,0,-1.6453,-1.6469,-1.6614,-1.662,-1.6626,-1.6733,-1.6701,-1.6823,-1.6779,-1.6722,-1.6776,-1.6775,-1.6866,-1.6878,-1.6908,-1.7012,-1.7019,-1.6963,-1.6968,-1.6971,-1.6973,0,0,0,0,0,0,0,-1.6445,-1.6463,-1.6637,-1.6617,-1.6624,-1.6637,-1.6653,-1.6724,-1.6798,-1.6726,-1.673,-1.6747,-1.6869,-1.6901,-1.6912,-1.7021,-1.6963,-1.6969,-1.6974,-1.6976,-1.7187,-1.7188,0,0,0,0,0,0,-1.6428,-1.6455,-1.6632,-1.6642,-1.6535,-1.6642,-1.666,-1.67,-1.6797,-1.6811,-1.6748,-1.6749,-1.6889,-1.6903,-1.6917,-1.6999,-1.697,-1.6977,-1.6981,-1.7185,-1.7187,-1.7188,0,0,0,0,0,0,-1.6423,-1.6443,-1.6626,-1.655,-1.6574,-1.6647,-1.6691,-1.6703,-1.6735,-1.6813,-1.6827,-1.6767,-1.6889,-1.6907,-1.6983,-1.7005,-1.698,-1.6987,-1.7184,-1.7186,-1.7188,-1.7163,0,0,0,0,0,0,-1.6416,-1.6441,-1.6466,-1.655,-1.6578,-1.6688,-1.6693,-1.6707,-1.6747,-1.675,-1.6835,-1.6848,-1.689,-1.6972,-1.699,-1.7015,-1.6992,-1.7182,-1.7185,-1.7187,-1.7162,-1.7164,-1.7165,0,0,0,0,0,-1.6407,-1.6453,-1.6467,-1.6488,-1.661,-1.669,-1.6706,-1.6752,-1.6749,-1.6775,-1.6825,-1.6845,-1.7,-1.6979,-1.7,-1.7027,-1.7181,-1.7184,-1.7187,-1.7161,-1.7164,-1.7165,0,0,0,0,0,0,-1.6371,-1.6465,-1.6481,-1.6556,-1.6614,-1.6697,-1.6731,-1.6753,-1.6814,-1.6814,-1.6871,-1.6889,-1.6961,-1.7002,-1.6977,-1.7095,-1.7092,-1.7099,-1.7065,-1.7068,-1.7069,-1.7058,-1.6998,0,0,0,0,0,-1.6371,-1.6427,-1.6507,-1.6565,-1.6594,-1.6657,-1.6694,-1.6725,-1.6788,-1.6813,-1.6869,-1.693,-1.6993,-1.7033,-1.7094,-1.7169,-1.7188,-1.7198,-1.7199,-1.72,-1.7205,-1.7248,-1.7253,-1.7198,-1.7198,-1.7198,0,0,-1.6373,-1.6432,-1.6464,-1.656,-1.6609,-1.6666,-1.6678,-1.6738,-1.6782,-1.6823,-1.6897,-1.694,-1.7012,-1.7087,-1.7123,-1.7124,-1.7225,-1.7204,-1.7204,-1.7209,-1.7252,-1.7257,-1.7262,-1.72,-1.72,-1.7199,0,0,-1.6406,-1.6456,-1.651,-1.6558,-1.6632,-1.6674,-1.6687,-1.6768,-1.6797,-1.6873,-1.6905,-1.6958,-1.7065,-1.7115,-1.7154,-1.7207,-1.7228,-1.7225,-1.7234,-1.7275,-1.7279,-1.7283,-1.7302,-1.7308,-1.7231,-1.7231,-1.7231,0,-1.6399,-1.6486,-1.6535,-1.6594,-1.6635,-1.6674,-1.673,-1.6775,-1.6866,-1.6894,-1.6893,-1.7028,-1.7079,-1.7167,-1.7179,-1.721,-1.7227,-1.7216,-1.7274,-1.7279,-1.7284,-1.7302,-1.7309,-1.723,-1.723,-1.723,-1.723,0,-1.6474,-1.6535,-1.657,-1.6655,-1.6701,-1.6758,-1.6815,-1.6856,-1.6883,-1.6926,-1.7002,-1.7066,-1.7141,-1.7164,-1.7192,-1.7256,-1.7254,-1.7263,-1.7261,-1.7287,-1.7306,-1.7313,-1.7229,-1.7229,-1.7229,-1.7229,0,0,-1.6488,-1.66,-1.6612,-1.6651,-1.6736,-1.6784,-1.6843,-1.6916,-1.695,-1.7011,-1.7063,-1.7152,-1.7161,-1.7206,-1.724,-1.7275,-1.7313,-1.7281,-1.7283,-1.7284,-1.7389,-1.7381,-1.7388,-1.7328,-1.733,-1.7331,-1.7382,0,-1.6531,-1.6637,-1.6683,-1.6769,-1.6825,-1.6864,-1.6915,-1.6973,-1.7015,-1.7069,-1.7116,-1.7178,-1.7185,-1.7213,-1.725,-1.7301,-1.7335,-1.7298,-1.7377,-1.7379,-1.7357,-1.7398,-1.739,-1.7435,-1.739,-1.7391,-1.7392,0,-1.6596,-1.6657,-1.6748,-1.6826,-1.6851,-1.6897,-1.6968,-1.7019,-1.7086,-1.7114,-1.7164,-1.7196,-1.7261,-1.7255,-1.7345,-1.7318,-1.7354,-1.7384,-1.7387,-1.7396,-1.7387,-1.7408,-1.7451,-1.7458,-1.7404,-1.7403,-1.7402,0,-1.6596,-1.6701,-1.6769,-1.6802,-1.6895,-1.6926,-1.6966,-1.7032,-1.7073,-1.7136,-1.7163,-1.7233,-1.7271,-1.7324,-1.7375,-1.7365,-1.746,-1.7458,-1.7486,-1.7484,-1.7503,-1.7501,-1.7552,-1.7526,-1.7526,-1.7526,-1.7526,0,-1.664,-1.6694,-1.6771,-1.6812,-1.6875,-1.6927,-1.6988,-1.7031,-1.7089,-1.7141,-1.7179,-1.7227,-1.729,-1.7347,-1.7387,-1.7455,-1.7472,-1.7497,-1.7507,-1.7493,-1.749,-1.7517,-1.7515,-1.7528,-1.7528,-1.7527,-1.7527,0,-1.6651,-1.6704,-1.6781,-1.6862,-1.6884,-1.6926,-1.6997,-1.7039,-1.7083,-1.7147,-1.7166,-1.7234,-1.7302,-1.7358,-1.7448,-1.7475,-1.7547,-1.7558,-1.7523,-1.7529,-1.7553,-1.755,-1.7623,-1.7635,-1.7601,-1.7601,-1.7601,0,-1.6675,-1.6717,-1.6803,-1.684,-1.6879,-1.6938,-1.6981,-1.7034,-1.7077,-1.7157,-1.719,-1.7261,-1.732,-1.7427,-1.7486,-1.7555,-1.7568,-1.7589,-1.7579,-1.7564,-1.7569,-1.7565,-1.757,-1.759,-1.759,-1.759,-1.759,0,-1.6712,-1.6736,-1.6795,-1.6863,-1.6912,-1.6969,-1.7026,-1.7054,-1.7119,-1.7165,-1.7235,-1.7281,-1.7372,-1.7442,-1.7517,-1.756,-1.7586,-1.7593,-1.7603,-1.7589,-1.7568,-1.758,-1.7526,-1.7591,-1.7591,-1.7591,-1.7591,-1.7591,-1.673,-1.677,-1.6836,-1.6901,-1.6949,-1.7002,-1.7046,-1.7095,-1.7154,-1.7231,-1.726,-1.7332,-1.7399,-1.7502,-1.7546,-1.7603,-1.7606,-1.762,-1.7624,-1.7627,-1.7625,-1.7558,-1.7617,-1.7617,-1.7617,-1.7617,-1.7617,0,-1.6769,-1.6814,-1.6872,-1.6951,-1.7002,-1.7021,-1.7086,-1.7128,-1.719,-1.725,-1.7307,-1.7388,-1.7456,-1.752,-1.7592,-1.7626,-1.7639,-1.7643,-1.7641,-1.765,-1.7618,-1.7602,-1.763,-1.763,-1.763,-1.763,-1.763,-1.763,-1.6795,-1.6863,-1.6896,-1.6988,-1.7033,-1.7103,-1.7138,-1.7188,-1.7236,-1.7323,-1.738,-1.7421,-1.7483,-1.7559,-1.7623,-1.7641,-1.7665,-1.7665,-1.7685,-1.7654,-1.7652,-1.765,-1.7636,-1.767,-1.767,-1.7713,-1.7713,-1.7713]}]]